TimeHST,TemperatureF,Dew PointF,Humidity,Sea Level PressureIn,VisibilityMPH,Wind Direction,Wind SpeedMPH,Gust SpeedMPH,PrecipitationIn,Events,Conditions,WindDirDegrees,DateUTC
12:53 AM,75.9,68.0,76,29.94,10.0,SE,8.1,-,N/A,,Scattered Clouds,140,2013-07-03 10:53:00
1:53 AM,78.1,66.9,68,29.93,10.0,Calm,Calm,-,N/A,,Overcast,0,2013-07-03 11:53:00
2:53 AM,78.1,63.0,60,29.91,10.0,Calm,Calm,-,0.00,,Overcast,0,2013-07-03 12:53:00
3:53 AM,77.0,62.1,60,29.92,10.0,NE,6.9,-,N/A,,Clear,50,2013-07-03 13:53:00
4:53 AM,75.9,61.0,60,29.92,10.0,North,5.8,-,N/A,,Clear,360,2013-07-03 14:53:00
5:53 AM,77.0,62.1,60,29.94,10.0,NNW,6.9,-,N/A,,Mostly Cloudy,340,2013-07-03 15:53:00
6:53 AM,80.1,61.0,52,29.96,10.0,North,9.2,-,N/A,,Mostly Cloudy,360,2013-07-03 16:53:00
7:53 AM,82.0,64.0,54,29.96,10.0,NNW,9.2,-,N/A,,Mostly Cloudy,330,2013-07-03 17:53:00
8:53 AM,81.0,64.9,58,29.97,10.0,NW,11.5,-,N/A,,Partly Cloudy,310,2013-07-03 18:53:00
9:53 AM,81.0,69.1,67,29.98,10.0,West,11.5,-,N/A,,Mostly Cloudy,260,2013-07-03 19:53:00
10:53 AM,82.9,69.1,63,29.98,10.0,WSW,11.5,-,N/A,,Clear,250,2013-07-03 20:53:00
11:53 AM,82.9,68.0,60,29.97,10.0,WSW,11.5,-,N/A,,Clear,240,2013-07-03 21:53:00
12:53 PM,82.9,69.1,63,29.96,10.0,West,11.5,-,N/A,,Mostly Cloudy,260,2013-07-03 22:53:00
1:53 PM,82.9,69.1,63,29.95,10.0,West,9.2,-,N/A,,Clear,270,2013-07-03 23:53:00
2:53 PM,82.9,68.0,60,29.94,10.0,SW,6.9,-,N/A,,Clear,220,2013-07-04 00:53:00
3:53 PM,82.9,68.0,60,29.93,10.0,South,10.4,-,N/A,,Scattered Clouds,190,2013-07-04 01:53:00
4:53 PM,82.9,68.0,60,29.92,10.0,South,13.8,-,N/A,,Clear,180,2013-07-04 02:53:00
5:53 PM,82.0,66.9,60,29.92,10.0,South,12.7,-,N/A,,Clear,180,2013-07-04 03:53:00
6:53 PM,81.0,68.0,65,29.94,10.0,South,12.7,-,N/A,,Clear,170,2013-07-04 04:53:00
7:53 PM,80.1,69.1,69,29.96,10.0,South,12.7,-,N/A,,Overcast,170,2013-07-04 05:53:00
8:53 PM,80.1,69.1,69,29.98,10.0,SSE,9.2,-,N/A,,Overcast,160,2013-07-04 06:53:00
9:53 PM,79.0,69.1,72,29.99,10.0,SE,9.2,-,N/A,,Partly Cloudy,140,2013-07-04 07:53:00
10:46 PM,78.8,69.8,74,29.99,10.0,South,5.8,-,N/A,,Overcast,190,2013-07-04 08:46:00
10:53 PM,79.0,69.1,72,29.99,10.0,South,8.1,-,N/A,,Overcast,190,2013-07-04 08:53:00
11:32 PM,78.8,69.8,74,29.99,10.0,SSW,6.9,-,N/A,,Overcast,200,2013-07-04 09:32:00
11:53 PM,78.1,69.1,74,29.99,10.0,South,5.8,-,N/A,,Mostly Cloudy,180,2013-07-04 09:53:00